Regional Weather Roundup
Issued by NWS Kansas City/Pleasant Hill, MO

Home | Current Version | Previous Version | Text Only | Print | Product List | Glossary On
Versions: 1 2 3 4 5 6 7 8 9 10 11 12 13 14 15 16 17 18 19 20 21 22 23 24 25 26 27 28 29 30 31 32 33 34 35 36 37 38 39 40 41 42 43 44 45 46 47 48 49 50
000
ASUS43 KEAX 201104
RWREAX

WEATHER ROUNDUP FOR EASTERN KANSAS AND NORTHWEST MISSOURI
NATIONAL WEATHER SERVICE KANSAS CITY/PLEASANT HILL MO
600 AM CDT SUN APR 20 2014

KSZ040-057-103>105-MOZ028-029-037-043-201200-
...KANSAS CITY METROPOLITAN AREA...

CITY           SKY/WX    TMP DP  RH WIND       PRES   REMARKS
K.C. INTL      PTCLDY    55  45  68 S9        30.08S
K.C. DOWNTOWN  MOCLDY    60  45  57 S8        30.08S
LEES SUMMIT    CLOUDY    59  45  59 S9        30.10S
OLATHE - IXD   CLOUDY    56  46  69 S7        30.11R
OLATHE - OJC   CLOUDY    55  45  68 S5        30.10R
LAWRENCE       MOCLDY    55  46  71 S5        30.09S

$$

MOZ001>008-011>017-020>025-030>033-038>040-044>046-053-054-201200-
...NORTHERN AND CENTRAL MISSOURI...

CITY           SKY/WX    TMP DP  RH WIND       PRES   REMARKS
ST. JOSEPH     PTCLDY    58  46  64 SE5       30.07S
MOSBY          FAIR      55  46  71 SE5       30.09S
WHITEMAN AFB   CLOUDY    56  41  58 S8        30.12S
CLINTON        CLOUDY    57  48  72 SE5       30.13F
SEDALIA        CLOUDY    58  45  62 S10       30.14S
WARSAW         NOT AVBL
MARSHALL         N/A     57  46  67 SE6       30.14R
CHILLICOTHE      N/A     55  44  66 SE5       30.10F
MOBERLY        MOCLDY    57  41  54 S9        30.14F
KIRKSVILLE     MOCLDY    49  41  74 S8        30.12F

$$

MOZ041-047>049-056>058-063>065-088>090-097-201200-
...EASTERN AND SOUTHERN MISSOURI...

CITY           SKY/WX    TMP DP  RH WIND       PRES   REMARKS
ST. LOUIS INTL MOCLDY    53  42  66 CALM      30.20S
SPIRIT OF STL  PTCLDY    44  41  89 CALM      30.18F
COLUMBIA       PTCLDY    55  41  59 SE9       30.15S
JEFFERSON CITY MOCLDY    53  41  63 E7        30.15F
MEXICO         MOCLDY    50  43  76 S9        30.16S
HANNIBAL       MOCLDY    59  37  44 SE7       30.16F
ROLLA          MOCLDY    57  42  57 S9        30.17S
LEBANON        MOCLDY    59  43  55 S7        30.18S
OSAGE BEACH    CLOUDY    55  41  58 SE7       30.18S
SPRINGFIELD    CLOUDY    56  46  69 SE9       30.16S
BRANSON        MOCLDY    57  46  67 SE5       30.18S
NEVADA         CLOUDY    54  46  76 S8        30.14S
JOPLIN         MOCLDY    56  48  74 S8        30.14S
WEST PLAINS    CLOUDY    49  42  77 CALM      30.20S

$$

IAZ060-094-KSZ022-034>040-054-083-096-NEZ052-066-093-201200-
...KANSAS...SOUTHEAST NEBRASKA AND IOWA...

CITY           SKY/WX    TMP DP  RH WIND       PRES   REMARKS
TOPEKA         PTCLDY    61  47  59 S7        30.07F
MANHATTAN      CLEAR     63  49  60 S12       30.03F
EMPORIA        MOCLDY    56  48  74 S10       30.07F
CHANUTE        PTCLDY    52  46  80 S7        30.11F
WICHITA        MOCLDY    59  50  72 S13       30.05F
OMAHA          PTCLDY    61  46  57 S8        29.97F
LINCOLN        PTCLDY    63  47  55 S14       29.96S
FALLS CITY     MOCLDY    60  47  61 S10       30.02F
LAMONI         PTCLDY    56  43  61 S12       30.06F
DES MOINES     MOCLDY    58  44  60 S10       30.04F

$$




USA.gov is the U.S. government's official web portal to all federal, state and local government web resources and services.